Find Starlink 31570

NORAD ID: 59324 Int'l Des: 2024-057 Owner: SPXS Country: US Constellation: starlink operational
LEOCIRCULAR

現在のビュー

3D地球を読み込み中...

About Starlink 31570

Starlink 31570 (NORAD 59324) is a starlink constellation satellite (v2 mini) launched Mar 25, 2024 by SPXS of US. It operates in LEO, CIRCULAR orbit with a mass of 730.00 kg.

Starlink 31570について

説明を読み込み中...

次回通過

Passes for default location (London). Set your location on the main map for personalized predictions.

高度履歴

Loading altitude history...

軌道要素

1 59324U 24057E 26173.69439617 .00004012 00000-0 15523-3 0 9991
2 59324 43.0026 314.4544 0001217 280.5270 79.5444 15.27581790125893
Epoch: Jun 22, 2026 • Age: 20 hours

現在のステータス

高度 495.6 km
速度 7.62 km/s
衛星直下点 -43.14°S, 115.69°E
打ち上げ日 Mar 25, 2024
運用期間 2.2 years
タイプ internet

技術仕様

分類 Payload
質量 730.00 kg
乾燥質量 700.00 kg
総質量 730.00 kg
長さ 0.30 m
直径 4.10 m
スパン 29.00 m
形状 Box + pan
製造者 SPXS
バスタイプ Starlink V2M
フェーズステータス In Orbit
所有者/国 SPXS/US

Most Searched